Location: Newark
(41.8083°N, 72.2500°W)
Time: 10:21:21
(UTC+00:00)

Explorer 11/Cluster Stage 4 - Pass Details

Date: 11 December 2021
Orbit: 467 x 1255 km, 28.8° (Epoch: 24 January)

Event Time Altitude Azimuth Distance (km) Brightness Sun altitude
Rises 03:33:51 0° 213° (SSW) 2,653 - -66.4°
Reaches altitude 10° 03:37:41 10° 175° (S) 1,914 - -66.9°
Maximum altitude 03:38:50 11° 160° (SSE) 1,906 - -67.0°
Drops below altitude 10° 03:40:03 10° 145° (SE) 2,022 - -67.2°
Sets 03:44:35 0° 110° (ESE) 3,168 - -67.7°
